Content
SEND FEEDBACK

Daily
Averages
Monthly
Summary
United States of America

BALDWIN, FLORIDA


Home > North America > United States > Florida
Elevation: 89 feet     Latitude: 30 13N     Longitude: 081 52W

WEATHER
 
SELECT A DAY
Number of Records: 128,017;   Date Range: 10/16/00 - 8/30/14
 
SHARE

PRINT THIS DATA

[ ← Previous Day ]
WEATHER ALMANAC - JANUARY 23, 2013
[ Next Day → ]
[ °C ]   °F
Weather ElementAverageHighLow
Temperature37.4 °F62.6 °F (3:50 pm)28.4 °F (3:55 am)
Dewpoint31.7 °F37.4 °F (5:50 pm)24.8 °F (10:50 am)
Humidity85.1 %100 % (12:35 am)33 % (12:50 pm)
Barometer30.34 in30.44 in (10:50 am)30.29 in (11:55 pm)
Wind Speed1.2 mph8.1 mph (9:50 am)
Weather ElementAverage
Visibility6.3 mi
Wind DirectionENE (54.7 °)

Weather ElementTotal
Precipitation---
Heating Degree Days19.5 (Base 65)
Averaged from 43 records on January 23, 2013
WEATHER CONDITIONS BREAKOUT
WIND DIRECTION BREAKOUT
WEATHER BY HOUR - JANUARY 23, 2013
[ °C ]   °F
Local TimeTemperatureDewpointHumidityBarometerVisibilityWind DirectionWind SpeedGust SpeedPrecipitationEventsConditions
12:35 AM32.0 °F32.0 °F100 %30.32 in3.0 miCalmClear
12:55 AM32.0 °F32.0 °F100 %30.32 in3.0 miCalmClear
1:15 AM32.0 °F32.0 °F100 %30.32 in3.0 miCalmClear
1:35 AM32.0 °F30.2 °F93 %30.32 in3.0 miCalmClear
1:55 AM32.0 °F30.2 °F93 %30.33 in4.0 miCalmClear
2:15 AM30.2 °F30.2 °F100 %30.33 in5.0 miCalmClear
2:35 AM32.0 °F30.2 °F93 %30.33 in5.0 miCalmClear
2:55 AM30.2 °F30.2 °F100 %30.33 in4.0 miCalmClear
3:15 AM30.2 °F28.4 °F93 %30.33 in3.0 miCalmClear
3:35 AM30.2 °F30.2 °F100 %30.33 in3.0 miCalmClear
3:55 AM28.4 °F28.4 °F100 %30.33 in3.0 miCalmClear
4:15 AM28.4 °F28.4 °F100 %30.33 in2.0 miCalmClear
4:35 AM28.4 °F28.4 °F100 %30.33 in2.5 miCalmClear
4:55 AM28.4 °F28.4 °F100 %30.33 in2.0 miCalmClear
5:15 AM28.4 °F28.4 °F100 %30.33 in2.5 miCalmClear
5:35 AM28.4 °F28.4 °F100 %30.34 in2.5 miCalmClear
5:55 AM28.4 °F28.4 °F100 %30.34 in2.5 miCalmClear
6:15 AM28.4 °F26.6 °F93 %30.35 in2.0 miCalmClear
6:35 AM28.4 °F28.4 °F100 %30.36 in3.0 miCalmClear
6:50 AM28.4 °F28.4 °F100 %30.36 in10.0 miCalmClear
7:50 AM28.4 °F26.6 °F93 %30.39 in10.0 miCalmClear
8:50 AM37.4 °F32.0 °F81 %30.41 in8.0 miNorth (360°)6.9 mphClear
9:50 AM46.4 °F26.6 °F46 %30.42 in10.0 miNorth (360°)8.1 mphClear
10:50 AM50.0 °F24.8 °F37 %30.44 in10.0 miNorth (360°)6.9 mphClear
11:50 AM53.6 °F26.6 °F35 %30.42 in10.0 miNorth (10°)5.8 mphClear
12:50 PM57.2 °F28.4 °F33 %30.38 in10.0 miNNW (330°)5.8 mphClear
1:50 PM59.0 °F30.2 °F34 %30.33 in10.0 miNNW (330°)5.8 mphClear
3:50 PM62.6 °F33.8 °F34 %30.31 in10.0 miWNW (300°)5.8 mphClear
4:50 PM62.6 °F35.6 °F37 %30.30 in10.0 miWNW (300°)5.8 mphClear
5:50 PM57.2 °F37.4 °F48 %30.31 in10.0 miCalmClear
7:50 PM41.0 °F37.4 °F87 %30.30 in10.0 miCalmClear
8:15 PM39.2 °F37.4 °F93 %30.30 in10.0 miCalmClear
8:35 PM39.2 °F37.4 °F93 %30.30 in10.0 miCalmClear
8:55 PM39.2 °F37.4 °F93 %30.31 in10.0 miCalmClear
9:15 PM37.4 °F35.6 °F93 %30.32 in10.0 miCalmClear
9:35 PM37.4 °F35.6 °F93 %30.32 in10.0 miCalmClear
9:55 PM37.4 °F35.6 °F93 %30.32 in9.0 miCalmClear
10:15 PM37.4 °F35.6 °F93 %30.32 in7.0 miCalmClear
10:35 PM37.4 °F35.6 °F93 %30.32 in5.0 miCalmClear
10:55 PM37.4 °F35.6 °F93 %30.32 in5.0 miCalmClear
11:15 PM37.4 °F37.4 °F100 %30.32 in6.0 miCalmClear
11:35 PM37.4 °F37.4 °F100 %30.31 in9.0 miCalmClear
11:55 PM37.4 °F35.6 °F93 %30.29 in6.0 miCalmClear
Hourly data recorded from KVQQ, located miles away from Baldwin, Florida







STORIES FROM OUR PARTNERS